星链-5530 (STARLINK-5530 )

导读

STARLINK-5530是美国SpaceX公司星链(Starlink)卫星互联网星座中的一颗卫星,于2023年5月10日由猎鹰9号火箭发射升空。作为星链低轨星座的组成部分,它运行在近地轨道,采用轻量化平板设计,旨在为全球提供高速、低延迟的宽带互联网服务,覆盖偏远地区,并支持航空、航海等移动场景的联网需求,是星链大规模组网中的一环,推动全球卫星互联网基础设施建设。

基本信息
目录编号:
56494
目录名称:
STARLINK-5530
国际标识:
2023-064AY
轨道中心:
EARTH
卫星名称:
星链-5530
卫星全名:
星链-5530 (STARLINK-5530 )
卫星状态:
在轨 (已飞行1221 天)
发射日期:
2023-05-10 UTC
国别 :
美国 (US)
星等 :
--
该卫星已列入 空间交会检测服务 Space Conjunction Data Service (SCDS) ,当前飞行风险评估等级: 无高风险
轨道信息
数据来源 国际轨道数据
星历时间: 2026-09-12T08:29:07+0800
15小时前
查看轨道信息
半长轴: 6950.213km
偏心率: 0.0003101
轨道倾角: 70.001°
近地点辐角 267.583°
升交点赤经 354.627°
平近点角 92.497°
近地点: 569.92km
远地点: 574.232km
周期: 96.107分钟
每日圈数: 14.983235
详细信息
固有亮度:
5
最大亮度:
2.5
卫星平台:
Starlink v1.5
覆盖范围:
全球
运营商:
太空探索技术公司
运营商所在国:
美国
制造商(研发单位):
太空探索技术公司
制造商所在国:
美国
使用方式:
暂无
卫星简介
星链(Starlink)计划是由太空探索技术公司(SpaceX)提出的一个巨型低轨卫星互联网星座项目,计划在2019年至2024年间在太空搭建由约1.2万颗卫星组成的“星链”网络,其中1584颗将部署在地球上空550千米处的近地轨道,并从2020年开始工作。该卫星仍在工作。
2D轨道图
3D轨道图
轨道高度分析图
轨道倾角分析图
轨道综合分析图
查看轨道综合分析图
交会数据列表
事件ID 空间交会对象 最接近时刻(TCA) 交会距离 交会风险概率(CRP) 交会风险指数(CRI) 操作
CDM_260906-155003-559405-649421
2026-09-06T
15:50:27+0000
2.332 km
极远距离
1.572735E-6 低风险 0.39
与全量物体交会距离演化趋势
与全量物体交会风险概率演化趋势